[Iaude] MPEC A80: 2019 AK3 [a=1.57,e=0.45,i=4.9,H=27.0]

mpec at mpcdb1.cfa.harvard.edu mpec at mpcdb1.cfa.harvard.edu
Sat Jan 5 22:11:17 EST 2019


M.P.E.C. 2019-A80                                Issued 2019 Jan. 6, 03:07 UT
 
     The Minor Planet Electronic Circulars contain information on unusual
         minor planets and routine data on comets.  They are published
    on behalf of Division F of the International Astronomical Union by the
          Minor Planet Center, Smithsonian Astrophysical Observatory,
                          Cambridge, MA 02138, U.S.A.

             Prepared using the Tamkin Foundation Computer Network

                              MPC at CFA.HARVARD.EDU
            URL https://www.minorplanetcenter.net/    ISSN 1523-6714


                                   2019 AK3
 
Observations:
     K19A03K* C2019 01 04.47409 07 24 36.777+39 17 24.81         21.6 wUEA080F51
     K19A03K  C2019 01 04.48527 07 24 41.427+39 17 19.85         21.3 wUEA080F51
     K19A03K  C2019 01 04.49639 07 24 46.119+39 17 14.61         21.4 wUEA080F51
     K19A03K  C2019 01 04.50756 07 24 50.850+39 17 08.66         21.6 wUEA080F51
     K19A03K ^C2019 01 05.37043307 33 06.035+39 10 07.44         21.02GVEA080568
     K19A03K ^C2019 01 05.37143607 33 06.576+39 10 07.15         21.24GVEA080568
     K19A03K ^C2019 01 05.37245507 33 07.126+39 10 06.84         21.52GVEA080568
     K19A03K ^C2019 01 05.37347807 33 07.676+39 10 06.57         21.40GVEA080568
     K19A03K KC2019 01 05.90934107 39 02.01 +39 01 56.3          21.2 GVEA080L01
     K19A03K IC2019 01 05.91322107 39 04.48 +39 01 54.0          21.3 GVEA080L01
     K19A03K IC2019 01 05.91709407 39 06.94 +39 01 51.8          21.3 GVEA080L01
 
Observer details:
568 Mauna Kea.  Observers R. Wainscoat, C. Wipper, A. Petric.  Measurers
    R. Weryk, R. Wainscoat.  3.6-m Canada-France-Hawaii Telescope + CCD.
F51 Pan-STARRS 1, Haleakala.  Observers J. Bulger, T. Lowe, A. Schultz,
    M. Willman.  Measurers K. Chambers, S. Chastel, L. Denneau, J. Fairlamb,
    H. Flewelling, M. Huber, C.-C. Lin, E. Magnier, Y. Ramanjooloo,
    R. Wainscoat, R. Weryk.  1.8-m Ritchey-Chretien + CCD.
L01 Visnjan Observatory, Tican.  Observer K. Korlevic.  1.0-m f/2.9 reflector
    + CCD.
 
Orbital elements:
2019 AK3                                                 Earth MOID = 0.0004 AU
Epoch 2019 Apr. 27.0 TT = JDT 2458600.5                 MPC
M  32.83767              (2000.0)            P               Q
n   0.49925650     Peri.  230.31653     -0.95884801     -0.27284548
a   1.5736938      Node   293.72148     +0.27960998     -0.85945408
e   0.4454220      Incl.    4.92027     +0.04928242     -0.43231242
P   1.97           H   27.0           G   0.15           U   7
Residuals in seconds of arc
190104 F51  0.2+  0.1+    190105 568  0.0   0.1-    190105 L01  0.4+  0.2-
190104 F51  0.2-  0.0     190105 568  0.0   0.1-    190105 L01  0.0   0.0
190104 F51  0.0   0.1+    190105 568  0.0   0.1-    190105 L01  0.4-  0.4+
190104 F51  0.0   0.0     190105 568  0.0   0.1-

Ephemeris:
2019 AK3                 a,e,i = 1.57, 0.45, 5                   q = 0.8727
Date    TT    R. A. (2000) Decl.     Delta      r     Elong.  Phase     V
2018 12 07    06 25 38.7 +37 07 04   0.2522  1.2190   155.3    19.7    25.4
...
2018 12 22    06 40 11.3 +38 37 09   0.1403  1.1183   162.5    15.3    23.8
...
2018 12 30    06 56 29.3 +39 14 22   0.08716 1.0671   163.3    15.4    22.7
...
2019 01 05    07 29 18.3 +39 12 52   0.04958 1.0307   162.4    16.7    21.4
2019 01 06    07 40 00.8 +39 01 05   0.04354 1.0248   162.0    17.3    21.2
2019 01 07    07 53 59.1 +38 39 02   0.03760 1.0190   161.3    18.0    20.9
...
2019 01 13    12 54 11.2 -00 00 24   0.01270 0.9857    99.7    79.5    20.3
...
2019 01 21    17 06 43.4 -36 24 55   0.05271 0.9462    43.1   134.7    26.7
...
2019 02 05    18 01 08.1 -37 49 18   0.1470  0.8924    47.1   125.9    27.9

A. U. Tomatic                (C) Copyright 2019 MPC           M.P.E.C. 2019-A80



More information about the Iaude mailing list